Location: Ash Swamp
(41.5170°N, 74.6157°W)
Time: 01:10:28
(UTC+00:00)

ATLAS 5 CENTAUR R/B - Pass Details

Date: 14 July 2020
Orbit: 534 x 1124 km, 63.4° (Epoch: 09 August)

Event Time Altitude Azimuth Distance (km) Brightness Sun altitude
Rises 08:23:54 0° 321° (NW) 3,362 5.4 -11.8°
Reaches altitude 10° 08:26:13 10° 318° (NW) 2,511 4.7 -11.5°
Maximum altitude 08:32:03 62° 239° (WSW) 1,075 2.5 -10.7°
Drops below altitude 10° 08:38:46 10° 161° (SSE) 2,868 4.7 -9.8°
Sets 08:41:34 0° 158° (SSE) 3,873 5.4 -9.4°
